Weather History for Brooksville, FL

Change the Weather History Date:

Wednesday, March 20, 2013

  Actual Average Record
Temperature  
Mean Temperature 67 °F -  
Max Temperature 77 °F 75 °F 88 °F (2011)
Min Temperature 57 °F 50 °F 37 °F (2005)
Cooling Degree Days 2    
Growing Degree Days 17 (Base 50)    
Moisture  
Dew Point 59 °F    
Average Humidity 80    
Maximum Humidity 100    
Minimum Humidity 52    
Precipitation  
Precipitation 0.06 in - - ()
Sea Level Pressure  
Sea Level Pressure 29.93 in    
Wind  
Wind Speed 6 mph (North)    
Max Wind Speed 16 mph    
Max Gust Speed 30 mph    
Visibility 10 miles    
Events Rain , Thunderstorm    
Averages and records for this station are not official NWS values.
T = Trace of Precipitation, MM = Missing Value Source: NWS Daily Summary

Daily Weather History Graph

Daily Weather History Graph

Search for Another Location

Airport:

Trip Planner

Search our weather history database for the weather conditions in past years. The results will help you decide how hot, cold, wet, or windy it might be!

Date:

Astronomy

Mar. 20, 2013 Rise Set
Actual Time 7:33 AM EDT 7:41 PM EDT
Civil Twilight 7:09 AM EDT 8:04 PM EDT
Nautical Twilight 6:42 AM EDT 8:32 PM EDT
Astronomical Twilight 6:14 AM EDT 8:59 PM EDT
Moon 1:41 PM EDT (3/20) 2:46 AM EDT (3/20)
Length of Visible Light 12h 54m
Length of Day
12h 07m
First Quarter, 59% of the Moon is Illuminated
Mar 20
First Quarter
Mar 27
Full
Apr 3
Last Quarter
Apr 10
New
Apr 18
First Quarter

Hourly Weather History & Observations

Time (EDT) Temp. Dew Point Humidity Pressure Visibility Wind Dir Wind Speed Gust Speed Precip Events Conditions
12:53 AM 66.9 °F 61.0 °F 81% 30.00 in 10.0 mi North 5.8 mph - N/A   Overcast
1:53 AM 63.0 °F 60.1 °F 90% 29.98 in 10.0 mi Calm Calm - N/A   Mostly Cloudy
2:53 AM 64.0 °F 60.1 °F 87% 29.97 in 10.0 mi NNE 3.5 mph - N/A   Mostly Cloudy
3:53 AM 64.0 °F 60.1 °F 87% 29.94 in 10.0 mi ENE 8.1 mph - N/A   Partly Cloudy
4:53 AM 64.9 °F 59.0 °F 81% 29.94 in 10.0 mi NNE 5.8 mph - N/A   Scattered Clouds
5:53 AM 64.9 °F 55.9 °F 73% 29.94 in 10.0 mi East 3.5 mph - N/A   Scattered Clouds
6:53 AM 64.9 °F 55.0 °F 70% 29.96 in 10.0 mi South 3.5 mph - N/A   Overcast
7:18 AM 64.4 °F 55.4 °F 73% 29.97 in 10.0 mi SSE 4.6 mph - 0.00 in Rain , Thunderstorm Thunderstorms and Rain
7:45 AM 62.6 °F 57.2 °F 82% 29.96 in 10.0 mi East 8.1 mph - 0.00 in   Mostly Cloudy
7:53 AM 62.1 °F 57.0 °F 84% 29.96 in 10.0 mi East 5.8 mph - 0.00 in   Mostly Cloudy
8:53 AM 64.9 °F 59.0 °F 81% 29.97 in 10.0 mi East 4.6 mph - N/A   Unknown
9:53 AM 68.0 °F 60.1 °F 76% 29.96 in 10.0 mi East 5.8 mph - N/A   Clear
10:53 AM 70.0 °F 62.1 °F 76% 29.98 in 10.0 mi ESE 8.1 mph - N/A   Clear
11:53 AM 71.1 °F 63.0 °F 75% 29.97 in 10.0 mi SSE 6.9 mph - N/A   Unknown
12:53 PM 72.0 °F 64.0 °F 76% 29.93 in 10.0 mi SE 4.6 mph - N/A   Clear
1:35 PM 73.4 °F 62.6 °F 69% 29.94 in 10.0 mi Variable 3.5 mph - N/A   Mostly Cloudy
1:53 PM 73.9 °F 63.0 °F 68% 29.93 in 10.0 mi SW 6.9 mph - N/A   Mostly Cloudy
2:01 PM 73.4 °F 62.6 °F 69% 29.93 in 10.0 mi WSW 9.2 mph - N/A   Mostly Cloudy
2:53 PM 77.0 °F 57.9 °F 52% 29.89 in 10.0 mi WSW 12.7 mph - N/A   Scattered Clouds
3:53 PM 73.9 °F 60.1 °F 62% 29.85 in 10.0 mi SW 10.4 mph - N/A   Clear
4:31 PM 71.6 °F 62.6 °F 73% 29.85 in 10.0 mi WNW 13.8 mph - N/A   Mostly Cloudy
4:48 PM 71.6 °F 60.8 °F 69% 29.85 in 10.0 mi West 6.9 mph - N/A   Scattered Clouds
4:53 PM 71.1 °F 61.0 °F 70% 29.84 in 10.0 mi West 9.2 mph - N/A   Partly Cloudy
5:53 PM 70.0 °F 60.1 °F 71% 29.86 in 10.0 mi West 8.1 mph - N/A   Mostly Cloudy
6:53 PM 66.9 °F 61.0 °F 81% 29.90 in 10.0 mi West 9.2 mph - 0.00 in Rain Light Rain
7:48 PM 62.6 °F 59.0 °F 88% 29.91 in 10.0 mi NNW 16.1 mph 29.9 mph 0.01 in Rain Light Rain
7:53 PM 61.0 °F 59.0 °F 93% 29.92 in 10.0 mi NNW 16.1 mph 27.6 mph 0.01 in Rain Light Rain
8:19 PM 60.8 °F 57.2 °F 88% 29.94 in 10.0 mi North 10.4 mph 21.9 mph 0.00 in   Overcast
8:53 PM 60.1 °F 57.9 °F 93% 29.91 in 10.0 mi NE 4.6 mph - 0.05 in Rain Light Rain
9:53 PM 59.0 °F 57.9 °F 96% 29.86 in 10.0 mi ESE 6.9 mph - 0.00 in   Scattered Clouds
10:14 PM 60.8 °F 57.2 °F 88% 29.90 in 10.0 mi NNW 10.4 mph 21.9 mph N/A   Partly Cloudy
10:53 PM 57.9 °F 57.0 °F 97% 29.91 in 10.0 mi Calm Calm - N/A   Clear
11:19 PM 57.2 °F 55.4 °F 94% 29.92 in 5.0 mi WNW 3.5 mph - N/A   Partly Cloudy
11:34 PM 57.2 °F 55.4 °F 94% 29.93 in 5.0 mi WNW 4.6 mph - N/A   Mostly Cloudy
11:53 PM 57.0 °F 57.0 °F 100% 29.93 in 6.0 mi Calm Calm - N/A   Scattered Clouds